Skip Page Navigation
NASA JPL Caltech
NASA Logo - Jet Propulsion Laboratory + View the NASA Portal
+ Center for Near-Earth Object Studies
JPL Home Earth Solar System Stars & Galaxies Technology
JPL Solar System Dynamics
BODIES ORBITS EPHEMERIDES TOOLS PHYSICAL DATA DISCOVERY FAQ SITE MAP
JPL Small-Body Database Browser
Search: [ help ]  
136083 (2003 AY65)
Classification: Outer Main-belt Asteroid          SPK-ID: 2136083
Ephemeris | Orbit Diagram | Orbital Elements | Mission Design | Physical Parameters | Discovery Circumstances | Close-Approach Data ]

[ hide orbit diagram ]

For accurate long-term ephemerides, please instead use our Horizons system.This orbit viewer was implemented using two-body methods, and hence should not be used for determining accurate long-term trajectories (over several years or decades) or planetary encounter circumstances.


[ revert to old Java-based viewer ]

Orbital Elements at Epoch 2459000.5 (2020-May-31.0) TDB
Reference: JPL 24 (heliocentric ecliptic J2000)
 Element Value Uncertainty (1-sigma)   Units 
e .09555555230236051 6.5341e-08  
a 3.213566501035117 3.0858e-08 au
q 2.906492379168342 2.1113e-07 au
i 13.42367830311763 7.4924e-06 deg
node 342.2711867936439 1.8139e-05 deg
peri 33.78035882640218 3.307e-05 deg
M 94.52418177916378 2.6266e-05 deg
tp 2458448.015892083962
(2018-Nov-25.51589208)
0.0001534 TDB
period 2104.16292536072
5.76
3.0308e-05
8.298e-08
d
yr
n .1710894131158046 2.4643e-09 deg/d
Q 3.520640622901892 3.3807e-08 au
  Orbit Determination Parameters
   # obs. used (total)      821  
   data-arc span      8111 days (22.21 yr)  
   first obs. used      1998-02-28  
   last obs. used      2020-05-14  
   planetary ephem.      DE431  
   SB-pert. ephem.      SB431-N16  
   condition code      0  
   norm. resid. RMS      .52562  
   source      ORB  
   producer      Otto Matic  
   solution date      2020-Nov-12 15:55:47  

Additional Information
 Earth MOID = 1.91569 au 
 Jupiter MOID = 1.96622 au 
 T_jup = 3.141 
[ show covariance matrix ]

Ephemeris | Orbit Diagram | Orbital Elements | Mission Design | Physical Parameters | Discovery Circumstances | Close-Approach Data ]

Physical Parameter Table
Parameter Symbol Value Units Sigma Reference Notes
absolute magnitude H 14.3   n/a MPO453844  
diameter diameter 6.664 km 0.132 urn:nasa:pds:neowise_diameters_albedos::2.0[mainbelt] (http://adsabs.harvard.edu/abs/2011ApJ...741...68M)  
geometric albedo albedo 0.100   0.012 urn:nasa:pds:neowise_diameters_albedos::2.0[mainbelt] (http://adsabs.harvard.edu/abs/2011ApJ...741...68M)  

136083 (2003 AY65)          Discovered 2003-Jan-07 by LINEAR at Socorro
Reference: 20060907/Numbers.arcLast Updated: 2006-09-10

[ show close-approach data ]
Ephemeris | Orbit Diagram | Orbital Elements | Mission Design | Physical Parameters | Discovery Circumstances | Close-Approach Data ]
ABOUT SSD CREDITS/AWARDS PRIVACY/COPYRIGHT GLOSSARY LINKS
FirstGov 2020-Dec-04 16:59 UT
(server date/time)  
NASA Home Page
Site Manager:   Ryan S. Park
Webmaster  Alan B. Chamberlin